Regional Weather Roundup
Issued by NWS Albany, NY

Home | Current Version | Previous Version | Text Only | Print | Product List | Glossary On
Versions: 1 2 3 4 5 6 7 8 9 10 11 12 13 14 15 16 17 18 19 20 21 22 23 24 25 26 27 28
000
ASUS41 KALY 221110
RWRALY

NEW YORK STATE HOURLY WEATHER ROUNDUP
NATIONAL WEATHER SERVICE ALBANY NY
700 AM EDT THU JUN 22 2017

NOTE: "FAIR" INDICATES FEW OR NO CLOUDS BELOW 12,000 FEET WITH NO
SIGNIFICANT WEATHER AND/OR NO OBSTRUCTIONS TO VISIBILITY.

NYZ032-033-038>043-046>054-057>066-NYZ062>081-082-084-221200-
EAST


CITY           SKY/WX    TMP DP  RH WIND       PRES   REMARKS
ALBANY         SUNNY     61  53  75 CALM      30.01S
GLENS FALLS    NOT AVBL
POUGHKEEPSIE   SUNNY     59  56  89 CALM      30.02R
NEWBURGH       SUNNY     61  57  88 CALM      30.04R
MONTGOMERY     SUNNY     59  57  93 CALM      30.02S
WHITE PLAINS   SUNNY     66  55  68 W5        30.02R
ISLIP          MOSUNNY   67  60  78 CALM      30.01R
NEW YORK CITY  PTSUNNY   70  56  61 NE3       30.01R
CENTRAL PARK   MOSUNNY   70  58  65 CALM      30.04R
$$

NYZ005>009-017-018-044>046-055-056-221200-
CENTRAL


CITY           SKY/WX    TMP DP  RH WIND       PRES   REMARKS
FULTON         SUNNY     60  58  92 CALM      30.01R
SYRACUSE       MOSUNNY   58  55  90 CALM      30.01R
ROME           SUNNY     53  52  96 SE3       30.02S
ELMIRA           N/A     52  52 100 CALM      30.04S VSB 1/4
BINGHAMTON     SUNNY     57  55  94 CALM      30.04
MONTICELLO     SUNNY     54  54 100 CALM      30.06S
$$

NYZ026>034-041>043-087-221200-
NORTH


CITY           SKY/WX    TMP DP  RH WIND       PRES   REMARKS
WATERTOWN      SUNNY     59  58  96 S6        29.99R
FORT DRUM      NOT AVBL
OGDENSBURG     FAIR      60  59  96 S3        29.97R
MASSENA        SUNNY     59  58  96 SW8       29.96R
SARANAC LAKE   SUNNY     54  54 100 S5        29.98S
PLATTSBURGH    SUNNY     65  54  67 VRB6      29.93S
$$

NYZ001>004-010>016-019>021-085-221200-
WEST


CITY           SKY/WX    TMP DP  RH WIND       PRES   REMARKS
NIAGARA FALLS  SUNNY     60  54  80 CALM      29.99S
BUFFALO        PTSUNNY   58  53  84 S6        30.00R
DUNKIRK        SUNNY     55  53  93 S3        30.01R
JAMESTOWN      SUNNY     50  46  87 CALM      30.03S
WELLSVILLE     SUNNY     52  49  89 CALM      30.06S
ROCHESTER      PTSUNNY   59  55  87 SW3       30.00S
PENN YAN       SUNNY     58  53  84 SW6       30.02S
$$

             KEY
       WCI = WIND CHILL INDEX
       VSB = VISIBILITY
       HX  = HEAT INDEX
$$




USA.gov is the U.S. government's official web portal to all federal, state and local government web resources and services.